Flag for Switzerland Weather past 2 weeks in Schwyz, Schwyz, Switzerland

Now
69 °F

Overcast.


Feels Like: 69 °F
Forecast: 59 / 75 °F
Wind: 12 mph from North

Location: Altdorf

Current Time: Jul 28, 2015 at 3:31:14 PM

Latest Report: Jul 28, 2015 at 2:00 PM


Visibility: 16 mi

Pressure: 29.84 "Hg (28.10 "Hg at 515m altitude)

Humidity: 58%

Dew point: 54 °F

Location of SchwyzLocation

Historic Weather in Schwyz — Graph

°F

Schwyz temperature yesterday

Maximum temperature yesterday: 73 °F (at 2:00 PM)
Minimum temperature yesterday: 60 °F (at 4:00 AM)
Average temperature yesterday: 67 °F

Past Weeks' High & Low Weather Summary

 TemperatureHumidityPressure
High87 °F (Jul 16, 4:00 PM)98% (Jul 20, 2:00 AM)30.13 "Hg (Jul 20, 2:00 AM)
Low57 °F (Jul 26, 8:00 AM)38% (Jul 17, 9:00 PM)29.66 "Hg (Jul 24, 5:00 PM)
Average72 °F68%29.96 "Hg
* Reported Jul 13 2:00 PM — Jul 28 2:00 PM, Schwyz, Weather by CustomWeather, © 2015

Note: Actual official high and low records may vary slightly from our data, if they occured in-between our weather recording intervals... More about our weather records

Advertising

Schwyz weather history for previous 24 hours

 ConditionsComfort  
Time TempWeatherWind HumidityBarometerVisibility
2:00 PM
Tue, Jul 28
69 °FOvercast.12 mph58%29.84 "Hg16 mi
1:00 PM67 °FMild.10 mph57%29.86 "HgN/A
12:00 PM67 °FMild.13 mph59%29.86 "HgN/A
11:00 AM67 °FPartly sunny.12 mph60%29.87 "Hg16 mi
10:00 AM66 °FMild.13 mph59%29.88 "HgN/A
8:00 AM62 °FPartly sunny.No wind80%29.88 "Hg16 mi
7:00 AM59 °FCool.1 mph85%29.88 "HgN/A
6:00 AM59 °FCool.1 mph81%29.87 "HgN/A
4:00 AM60 °FCool.2 mph76%29.87 "HgN/A
3:00 AM62 °FCool.2 mph71%29.86 "HgN/A
2:00 AM62 °FPassing clouds.3 mph74%29.88 "Hg16 mi
1:00 AM63 °FMild.5 mph74%29.88 "HgN/A
12:00 AM65 °FMild.2 mph67%29.87 "HgN/A
10:00 PM
Mon, Jul 27
64 °FMild.2 mph78%29.86 "HgN/A
9:00 PM66 °FMild.1 mph74%29.83 "HgN/A
8:00 PM69 °FOvercast.2 mph64%29.80 "Hg12 mi
7:00 PM71 °FMild.1 mph58%29.80 "HgN/A
6:00 PM72 °FMild.7 mph52%29.79 "HgN/A
5:00 PM73 °FPartly sunny.13 mph45%29.77 "Hg12 mi
4:00 PM73 °FMild.13 mph48%29.76 "HgN/A
3:00 PM72 °FMild.12 mph51%29.76 "HgN/A
Weather by CustomWeather, © 2015

See weather overviewHow to use our weather pages